ONEWEB-0220 (48232 NORAD) Tracking and Keplerian Element Data

This shows tracking and keplerian element data for the satellite.

Feedback or suggestion? Click here.




ElementValue
Catalog48232
NameONEWEB-0220
Epoch Orbit195
Epoch Day173.83334491
Epoch Year2021
RAAN294.061
Inclination87.6333
Eccentricity0.0013122
Argument of Perigee56.2143
Mean Anonmoly94.3813
Mean Motion14.53560115
Decay Rate-0.00881628
L11 48232U 21031Y 21173.83334491 -.00881628 00000-0 -22412+0 0 9990
L22 48232 87.6333 294.0610 0013122 56.2143 94.3813 14.53560115 1957

Live tracking and technical data element details for ONEWEB-0220 (NORAD 48232). ONEWEB-0220 can be tracked NOW for your location showing map with azimuth and elevation plus other details from your city location.

Track the satellite on the map from your city or location and see movement details for azimuth, elevation, latitude, longitude, range, height, and movement on the map or in text.







IsCatalogInMostPopularTable: catalog: 48232, numindb: 24
Update: records affected: 1



GetName: 48232 ONEWEB-0220

Hit Count: updated at: Thu, 24 Jun 2021 02:21:00 GMT